JBU1632 KISP-KBOS

Flight info

Callsign JBU1632
Flight time 0h 38m
Altitude 21000
Route MERIT ROBUC3
Aircraft A320/M-SDE3FGHIRWY/LB1

Departure

Time 2026-05-06 20:28
Airport Long Island MacArthur Airport (KISP)

Arrival

Time 2026-05-06 21:06
Airport Boston Logan International Airport (KBOS)
Time Latitude Longitude Altitude Speed Heading
2026-05-06 18:49 40.79049 -73.09729 98 ft 0 kts 179°
2026-05-06 20:04 40.79063 -73.09729 106 ft 3 kts 180°
2026-05-06 20:05 40.79080 -73.09730 96 ft 3 kts 180°
2026-05-06 20:05 40.79098 -73.09735 97 ft 3 kts 145°
2026-05-06 20:05 40.79111 -73.09750 97 ft 3 kts 119°
2026-05-06 20:05 40.79115 -73.09760 97 ft 0 kts 99°
2026-05-06 20:13 40.79113 -73.09736 100 ft 3 kts 93°
2026-05-06 20:13 40.79113 -73.09692 98 ft 5 kts 90°
2026-05-06 20:13 40.79113 -73.09640 98 ft 7 kts 90°
2026-05-06 20:13 40.79115 -73.09579 99 ft 6 kts 77°
2026-05-06 20:14 40.79154 -73.09511 98 ft 12 kts 46°
2026-05-06 20:14 40.79217 -73.09450 98 ft 10 kts
2026-05-06 20:14 40.79284 -73.09469 99 ft 12 kts 353°
2026-05-06 20:14 40.79373 -73.09469 98 ft 12 kts
2026-05-06 20:15 40.79479 -73.09469 98 ft 19 kts
2026-05-06 20:15 40.79608 -73.09469 98 ft 17 kts 360°
2026-05-06 20:15 40.79727 -73.09470 98 ft 18 kts 359°
2026-05-06 20:15 40.79846 -73.09470 98 ft 16 kts 360°
2026-05-06 20:16 40.79951 -73.09470 98 ft 14 kts 360°
2026-05-06 20:16 40.80042 -73.09466 98 ft 12 kts 11°
2026-05-06 20:16 40.80100 -73.09413 99 ft 8 kts 43°
2026-05-06 20:16 40.80138 -73.09386 99 ft 4 kts
2026-05-06 20:17 40.80151 -73.09392 99 ft 0 kts 329°
2026-05-06 20:25 40.80153 -73.09393 99 ft 2 kts 329°
2026-05-06 20:26 40.80163 -73.09403 100 ft 2 kts 323°
2026-05-06 20:26 40.80183 -73.09429 101 ft 3 kts 313°
2026-05-06 20:26 40.80200 -73.09453 103 ft 4 kts 311°
2026-05-06 20:26 40.80203 -73.09472 103 ft 1 kts 268°
2026-05-06 20:27 40.80201 -73.09480 103 ft 1 kts 253°
2026-05-06 20:27 40.80188 -73.09502 103 ft 9 kts 229°
2026-05-06 20:27 40.80012 -73.09734 102 ft 69 kts 224°
2026-05-06 20:27 40.79512 -73.10399 119 ft 130 kts 223°
2026-05-06 20:28 40.78848 -73.11284 637 ft 141 kts 223°
2026-05-06 20:28 40.78153 -73.12251 1296 ft 149 kts 225°
2026-05-06 20:28 40.77421 -73.13239 1955 ft 155 kts 226°
2026-05-06 20:28 40.76583 -73.14306 2506 ft 181 kts 225°
2026-05-06 20:29 40.75589 -73.15533 2912 ft 211 kts 225°
2026-05-06 20:29 40.74461 -73.16907 2998 ft 226 kts 225°
2026-05-06 20:29 40.73355 -73.18375 2987 ft 225 kts 237°
2026-05-06 20:29 40.72894 -73.20316 3190 ft 227 kts 267°
2026-05-06 20:30 40.73365 -73.22330 3750 ft 241 kts 297°
2026-05-06 20:30 40.76049 -73.25273 5252 ft 266 kts 328°
2026-05-06 20:30 40.77883 -73.25768 6013 ft 283 kts 352°
2026-05-06 20:31 40.79911 -73.25581 6698 ft 294 kts 360°
2026-05-06 20:31 40.81938 -73.25207 7306 ft 300 kts
2026-05-06 20:31 40.84013 -73.24784 7928 ft 303 kts
2026-05-06 20:31 40.86113 -73.24350 8551 ft 307 kts
2026-05-06 20:32 40.88215 -73.23918 9266 ft 310 kts
2026-05-06 20:32 40.90380 -73.23478 10022 ft 314 kts
2026-05-06 20:32 40.92568 -73.23036 10734 ft 323 kts
2026-05-06 20:32 40.94849 -73.22582 11300 ft 339 kts
2026-05-06 20:33 40.97246 -73.22103 11867 ft 356 kts
2026-05-06 20:33 40.99747 -73.21600 12434 ft 371 kts
2026-05-06 20:33 41.02348 -73.21074 13013 ft 385 kts
2026-05-06 20:33 41.05004 -73.20534 13586 ft 398 kts
2026-05-06 20:34 41.07776 -73.19969 14111 ft 405 kts
2026-05-06 20:34 41.10582 -73.19394 14625 ft 409 kts
2026-05-06 20:34 41.13402 -73.18816 15157 ft 412 kts
2026-05-06 20:34 41.16251 -73.18234 15688 ft 415 kts
2026-05-06 20:35 41.19112 -73.17650 16246 ft 418 kts
2026-05-06 20:35 41.22004 -73.17060 16802 ft 422 kts
2026-05-06 20:35 41.24914 -73.16466 17373 ft 425 kts
2026-05-06 20:35 41.27854 -73.15866 17954 ft 429 kts
2026-05-06 20:36 41.30815 -73.15256 18489 ft 434 kts
2026-05-06 20:36 41.33765 -73.14150 19000 ft 447 kts 19°
2026-05-06 20:36 41.36383 -73.11950 19514 ft 458 kts 38°
2026-05-06 20:36 41.38489 -73.08649 20051 ft 466 kts 57°
2026-05-06 20:37 41.39770 -73.04681 20553 ft 472 kts 76°
2026-05-06 20:37 41.40274 -73.00339 20803 ft 477 kts 86°
2026-05-06 20:37 41.40543 -72.95853 20839 ft 494 kts 87°
2026-05-06 20:37 41.40858 -72.91298 20834 ft 504 kts 85°
2026-05-06 20:38 41.41250 -72.86637 20831 ft 506 kts 84°
2026-05-06 20:38 41.41694 -72.81915 20834 ft 507 kts 84°
2026-05-06 20:38 41.42150 -72.77325 20830 ft 507 kts 84°
2026-05-06 20:38 41.42618 -72.72742 20832 ft 507 kts 83°
2026-05-06 20:39 41.43103 -72.68044 20837 ft 507 kts 83°
2026-05-06 20:39 41.43590 -72.63355 20861 ft 506 kts 83°
2026-05-06 20:39 41.44070 -72.58729 20857 ft 506 kts 83°
2026-05-06 20:39 41.44551 -72.54089 20859 ft 506 kts 83°
2026-05-06 20:40 41.45033 -72.49429 20857 ft 506 kts 84°
2026-05-06 20:40 41.45504 -72.44851 20859 ft 506 kts 84°
2026-05-06 20:40 41.45989 -72.40131 20858 ft 506 kts 84°
2026-05-06 20:40 41.46465 -72.35480 20860 ft 506 kts 84°
2026-05-06 20:41 41.46938 -72.30834 20856 ft 506 kts 84°
2026-05-06 20:41 41.47410 -72.26186 20860 ft 505 kts 84°
2026-05-06 20:41 41.48007 -72.21649 20848 ft 487 kts 75°
2026-05-06 20:41 41.49184 -72.17515 20858 ft 471 kts 65°
2026-05-06 20:42 41.50586 -72.13587 20856 ft 468 kts 63°
2026-05-06 20:42 41.52027 -72.09687 20856 ft 468 kts 63°
2026-05-06 20:42 41.53469 -72.05784 20856 ft 468 kts 63°
2026-05-06 20:42 41.54897 -72.01897 20858 ft 464 kts 63°
2026-05-06 20:43 41.56204 -71.98059 20855 ft 457 kts 67°
2026-05-06 20:43 41.57400 -71.94139 20632 ft 454 kts 68°
2026-05-06 20:43 41.58562 -71.90230 20408 ft 453 kts 69°
2026-05-06 20:43 41.59728 -71.86296 20154 ft 452 kts 69°
2026-05-06 20:44 41.60488 -71.83721 19995 ft 451 kts 69°
2026-05-06 20:44 41.62025 -71.78502 19664 ft 449 kts 69°
2026-05-06 20:44 41.63165 -71.74629 19262 ft 445 kts 69°
2026-05-06 20:44 41.64283 -71.70832 18866 ft 436 kts 69°
2026-05-06 20:45 41.65370 -71.67133 18432 ft 427 kts 69°
2026-05-06 20:45 41.66445 -71.63474 18028 ft 417 kts 69°
2026-05-06 20:45 41.67492 -71.59906 17612 ft 407 kts 69°
2026-05-06 20:45 41.68510 -71.56431 17206 ft 396 kts 70°
2026-05-06 20:46 41.69510 -71.53010 16826 ft 396 kts 70°
2026-05-06 20:46 41.70515 -71.49571 16381 ft 394 kts 70°
2026-05-06 20:46 41.71510 -71.46159 15936 ft 391 kts 70°
2026-05-06 20:46 41.72570 -71.42841 15549 ft 388 kts 63°
2026-05-06 20:47 41.73855 -71.39664 15186 ft 386 kts 60°
2026-05-06 20:47 41.75176 -71.36578 14790 ft 385 kts 60°
2026-05-06 20:47 41.76528 -71.33437 14372 ft 383 kts 60°
2026-05-06 20:47 41.77853 -71.30354 13957 ft 381 kts 60°
2026-05-06 20:48 41.78720 -71.28331 13679 ft 379 kts 60°
2026-05-06 20:48 41.80028 -71.25271 13204 ft 375 kts 60°
2026-05-06 20:48 41.81317 -71.22250 12740 ft 371 kts 61°
2026-05-06 20:48 41.82591 -71.19257 12292 ft 367 kts 61°
2026-05-06 20:49 41.83844 -71.16312 12019 ft 360 kts 62°
2026-05-06 20:49 41.85075 -71.13415 11775 ft 357 kts 62°
2026-05-06 20:49 41.86311 -71.10533 11526 ft 356 kts 61°
2026-05-06 20:49 41.87555 -71.07655 11283 ft 355 kts 61°
2026-05-06 20:50 41.88765 -71.04856 11052 ft 354 kts 62°
2026-05-06 20:50 41.89999 -71.01999 10804 ft 353 kts 62°
2026-05-06 20:50 41.91222 -70.99161 10557 ft 351 kts 62°
2026-05-06 20:50 41.92446 -70.96322 10311 ft 350 kts 62°
2026-05-06 20:51 41.93667 -70.93487 10073 ft 350 kts 62°
2026-05-06 20:51 41.94871 -70.90688 9834 ft 349 kts 62°
2026-05-06 20:51 41.96094 -70.87842 9578 ft 347 kts 63°
2026-05-06 20:51 41.97298 -70.85037 9322 ft 346 kts 63°
2026-05-06 20:52 41.98494 -70.82249 9069 ft 344 kts 63°
2026-05-06 20:52 41.99686 -70.79465 8803 ft 342 kts 63°
2026-05-06 20:52 42.00907 -70.76733 8546 ft 341 kts 57°
2026-05-06 20:52 42.02387 -70.74251 8282 ft 340 kts 50°
2026-05-06 20:53 42.03963 -70.71874 8071 ft 338 kts 49°
2026-05-06 20:53 42.05539 -70.69534 8030 ft 337 kts 49°
2026-05-06 20:53 42.07113 -70.67194 8029 ft 337 kts 49°
2026-05-06 20:53 42.08681 -70.64853 8029 ft 337 kts 49°
2026-05-06 20:54 42.10298 -70.62610 8023 ft 337 kts 38°
2026-05-06 20:54 42.12341 -70.61195 8032 ft 330 kts 12°
2026-05-06 20:54 42.14560 -70.60464 8033 ft 328 kts
2026-05-06 20:54 42.16785 -70.59870 8029 ft 328 kts
2026-05-06 20:55 42.19042 -70.59277 8029 ft 328 kts
2026-05-06 20:55 42.21278 -70.58677 8029 ft 328 kts
2026-05-06 20:55 42.23523 -70.58065 8029 ft 328 kts
2026-05-06 20:55 42.25762 -70.57448 8032 ft 328 kts
2026-05-06 20:56 42.27997 -70.56827 8032 ft 328 kts
2026-05-06 20:56 42.30233 -70.56222 8030 ft 326 kts
2026-05-06 20:56 42.32441 -70.56287 7879 ft 308 kts 335°
2026-05-06 20:56 42.34239 -70.57574 7468 ft 290 kts 310°
2026-05-06 20:57 42.35707 -70.59398 7012 ft 285 kts 305°
2026-05-06 20:57 42.37108 -70.61301 6418 ft 284 kts 304°
2026-05-06 20:57 42.38497 -70.63188 5757 ft 282 kts 305°
2026-05-06 20:57 42.39878 -70.65043 5161 ft 277 kts 305°
2026-05-06 20:58 42.41246 -70.66863 4556 ft 273 kts 305°
2026-05-06 20:58 42.42593 -70.68646 3951 ft 270 kts 304°
2026-05-06 20:58 42.43931 -70.70414 3365 ft 266 kts 304°
2026-05-06 20:58 42.45244 -70.72147 3031 ft 263 kts 304°
2026-05-06 20:59 42.46555 -70.73886 2787 ft 265 kts 304°
2026-05-06 20:59 42.47880 -70.75642 2530 ft 266 kts 304°
2026-05-06 20:59 42.49209 -70.77401 2290 ft 268 kts 305°
2026-05-06 20:59 42.50523 -70.79148 2061 ft 265 kts 306°
2026-05-06 21:00 42.51620 -70.81019 2010 ft 243 kts 285°
2026-05-06 21:00 42.52023 -70.83164 2001 ft 231 kts 269°
2026-05-06 21:00 42.52175 -70.85274 1982 ft 217 kts 265°
2026-05-06 21:00 42.52319 -70.87210 2015 ft 196 kts 264°
2026-05-06 21:01 42.52138 -70.88866 2013 ft 166 kts 242°
2026-05-06 21:01 42.51662 -70.90259 1990 ft 162 kts 236°
2026-05-06 21:01 42.51143 -70.91614 2000 ft 160 kts 233°
2026-05-06 21:01 42.50566 -70.92790 1982 ft 141 kts 228°
2026-05-06 21:02 42.49890 -70.93689 1995 ft 134 kts 213°
2026-05-06 21:02 42.49088 -70.94309 2008 ft 133 kts 207°
2026-05-06 21:02 42.48237 -70.94805 1998 ft 134 kts 204°
2026-05-06 21:02 42.47357 -70.95245 1995 ft 135 kts 202°
2026-05-06 21:03 42.46474 -70.95668 1960 ft 134 kts 202°
2026-05-06 21:03 42.45608 -70.96091 1788 ft 128 kts 200°
2026-05-06 21:03 42.44808 -70.96476 1642 ft 115 kts 203°
2026-05-06 21:03 42.44079 -70.96831 1455 ft 110 kts 202°
2026-05-06 21:04 42.43361 -70.97181 1312 ft 110 kts 201°
2026-05-06 21:04 42.42636 -70.97533 1152 ft 111 kts 200°
2026-05-06 21:04 42.41913 -70.97883 1005 ft 110 kts 201°
2026-05-06 21:04 42.41179 -70.98240 854 ft 114 kts 200°
2026-05-06 21:05 42.40432 -70.98601 692 ft 115 kts 199°
2026-05-06 21:05 42.39676 -70.98966 535 ft 115 kts 203°
2026-05-06 21:05 42.38901 -70.99344 382 ft 123 kts 200°
2026-05-06 21:05 42.38095 -70.99730 211 ft 120 kts 202°
2026-05-06 21:06 42.37345 -71.00101 57 ft 115 kts 200°
2026-05-06 21:06 42.36646 -71.00437 28 ft 88 kts 199°
2026-05-06 21:06 42.36264 -71.00621 29 ft 24 kts 200°
2026-05-06 21:06 42.36147 -71.00746 27 ft 20 kts 256°
2026-05-06 21:07 42.36180 -71.00902 28 ft 15 kts 294°
2026-05-06 21:07 42.36227 -71.01011 27 ft 12 kts 322°
2026-05-06 21:07 42.36296 -71.00998 27 ft 9 kts 21°
2026-05-06 21:07 42.36341 -71.00975 28 ft 0 kts 20°
2026-05-06 21:24 42.36345 -71.00973 28 ft 4 kts 20°
2026-05-06 21:24 42.36371 -71.00961 29 ft 4 kts 20°
2026-05-06 21:25 42.36423 -71.00936 31 ft 10 kts 19°
2026-05-06 21:25 42.36478 -71.00938 33 ft 6 kts 326°
2026-05-06 21:25 42.36496 -71.00978 31 ft 5 kts 296°
2026-05-06 21:25 42.36513 -71.01029 31 ft 12 kts 294°
2026-05-06 21:26 42.36554 -71.01160 28 ft 13 kts 297°
2026-05-06 21:26 42.36587 -71.01260 27 ft 10 kts 306°
2026-05-06 21:26 42.36639 -71.01269 28 ft 6 kts 18°
2026-05-06 21:26 42.36673 -71.01256 28 ft 6 kts
2026-05-06 21:27 42.36702 -71.01291 27 ft 6 kts 279°
2026-05-06 21:27 42.36702 -71.01342 29 ft 5 kts 265°
2026-05-06 21:27 42.36691 -71.01396 26 ft 6 kts 242°
2026-05-06 21:27 42.36661 -71.01428 25 ft 5 kts 214°
2026-05-06 21:28 42.36638 -71.01449 25 ft 4 kts 214°
2026-05-06 21:28 42.36616 -71.01470 25 ft 3 kts 215°
2026-05-06 21:28 42.36614 -71.01472 26 ft 0 kts 215°